Location: Erlach
(47.0430°N, 7.0996°E)
Time: 06:41:03
(UTC+00:00)

Cosmos 2227 Rocket - Pass Details

Date: 07 June 2020
Orbit: 838 x 846 km, 71.0° (Epoch: 04 July)

Event Time Altitude Azimuth Distance (km) Brightness Sun altitude
Rises 00:00:34 0° 327° (NNW) 3,418 6.1 -19.9°
Reaches altitude 10° 00:03:09 10° 320° (NW) 2,478 5.2 -19.8°
Maximum altitude 00:08:24 39° 253° (WSW) 1,240 2.8 -19.7°
Enters shadow 00:09:57 33° 218° (SW) 1,394 2.9 -19.6°
